Location: Austin
(30.3000°N, 97.7500°W)
Time: 12:23:23
(UTC-05:00)

Resurs 01 Rocket - Pass Details

Date: 26 May 2023
Orbit: 633 x 641 km, 97.8° (Epoch: 31 May)

Event Time Altitude Azimuth Distance (km) Brightness Sun altitude
Exits shadow 20:54:48 - 112° (ESE) 2,202 3.7 -6.6°
Reaches altitude 10° 20:55:30 10° 105° (ESE) 2,022 3.6 -6.7°
Maximum altitude 20:58:04 16° 69° (ENE) 1,690 3.4 -7.2°
Drops below altitude 10° 21:00:40 10° 33° (NNE) 2,031 4.2 -7.7°
Sets 21:03:39 0° 11° (NNE) 2,945 5.3 -8.2°
